Theta_e
316 314 310 306 304 304 305 306 306 307 307 307 307 307 308 308 309 309 310 312 316 318 323 324 322 334 342 345 349 350 355 356 353 354 355 352 351 351 350 345 348 349 346 347 345
312 311 310 308 305 304 305 305 306 307 307 307 307 307 308 309 309 310 312 311 318 317 321 323 320 336 346 347 348 350 353 351 349 350 353 353 351 351 349 346 346 347 348 347 345
309 308 308 307 307 305 305 305 306 307 307 307 307 307 308 308 311 323 317 311 318 319 318 321 321 342 343 343 349 351 352 349 349 352 352 352 352 351 351 353 346 348 348 348 348
308 306 306 306 306 306 305 306 305 307 308 308 308 308 308 309 323 321 314 312 318 319 320 320 329 340 338 340 342 348 347 347 349 352 352 352 351 351 350 351 346 345 347 347 345
306 306 306 306 307 307 306 306 305 307 308 309 308 308 309 310 312 321 312 315 319 319 320 320 335 337 337 338 340 345 344 343 342 350 351 351 351 351 352 348 346 344 347 347 344
308 308 308 308 308 308 307 307 306 307 309 309 308 308 311 310 316 321 318 317 319 321 322 322 337 340 336 335 337 338 340 338 337 343 350 349 351 351 353 349 347 346 345 345 344
308 308 308 308 308 308 308 308 306 308 310 309 308 311 312 312 321 323 323 318 318 318 317 325 334 338 336 337 336 335 332 331 350 350 348 349 352 351 351 352 350 348 346 344 343
308 308 307 307 308 308 308 308 307 311 311 309 308 316 318 315 321 323 324 320 319 319 319 324 334 335 335 334 328 325 324 326 349 350 350 349 355 350 349 350 351 348 346 346 346
306 307 306 307 307 307 307 308 313 313 312 309 311 318 322 323 322 323 324 326 321 319 318 317 327 332 324 324 324 323 328 326 345 349 351 349 353 349 351 348 351 350 346 344 346
305 306 305 305 306 306 307 311 317 313 309 311 315 321 320 324 322 322 323 327 322 316 317 321 321 318 320 322 331 329 326 325 326 349 350 352 351 349 352 351 349 348 344 344 345
304 305 307 308 306 306 308 312 313 316 312 314 315 315 318 317 316 315 319 326 322 319 315 317 319 321 322 324 325 325 325 326 325 332 349 349 349 350 350 352 351 347 346 345 344
306 308 309 306 306 307 314 314 314 313 313 314 314 314 316 317 317 315 320 325 321 318 319 321 324 322 324 324 324 325 326 325 325 325 333 339 352 348 350 351 352 350 347 346 344
309 309 309 306 307 313 314 314 314 313 312 313 314 315 316 317 317 316 319 324 320 321 321 323 325 324 325 326 326 325 325 325 328 324 347 349 352 351 347 350 348 351 349 346 345
310 310 306 310 313 314 314 314 315 313 306 309 313 316 317 315 314 316 322 324 324 323 321 324 324 326 325 327 325 327 324 327 327 321 324 345 351 349 348 349 346 346 348 348 345
311 311 307 313 314 314 313 314 315 312 311 313 313 315 316 314 316 316 320 322 321 326 324 326 324 325 326 325 324 326 323 325 324 320 334 335 333 336 348 348 347 346 345 348 347
313 310 313 314 314 313 313 314 315 311 316 313 312 312 312 313 314 315 317 318 318 315 317 322 318 321 323 322 324 322 318 314 314 314 319 325 323 321 345 344 343 345 346 344 348
314 314 313 312 313 313 314 315 310 312 312 314 311 311 311 312 313 314 312 311 313 314 316 315 315 314 315 319 319 317 316 317 319 319 320 316 319 319 320 326 333 340 345 346 344
316 316 317 316 316 314 314 310 314 314 314 312 311 311 312 311 311 311 311 312 311 310 310 313 316 313 313 315 318 317 317 317 321 320 321 317 321 325 324 329 336 338 344 346 347
316 317 316 317 316 315 314 311 314 313 313 313 313 313 313 313 311 311 310 311 311 310 313 312 315 312 313 312 313 317 316 314 314 314 317 317 319 319 323 327 331 337 343 344 348
317 317 316 317 317 316 313 313 313 313 312 312 313 312 314 312 312 311 311 312 312 309 310 311 313 312 312 312 311 311 311 317 314 320 322 319 323 323 320 322 333 339 340 341 346
317 317 316 317 317 315 311 314 314 313 313 312 312 313 312 312 311 311 311 312 312 311 308 308 308 312 310 309 308 309 309 307 310 312 317 319 324 319 318 327 335 335 338 342 342
316 311 315 317 312 308 309 312 313 312 312 312 311 311 311 310 311 312 313 313 313 310 311 307 304 308 310 308 308 308 309 305 312 314 310 316 318 323 331 332 331 334 336 341 342
316 314 315 317 310 308 311 312 311 311 310 310 311 310 308 309 312 311 312 312 312 314 311 310 305 307 311 308 307 309 309 306 303 304 309 318 317 321 326 328 327 331 334 335 340
315 309 314 313 310 309 310 310 312 311 310 310 309 309 308 308 307 310 310 311 310 315 314 309 305 307 307 309 307 311 312 310 306 309 309 310 311 319 324 326 324 325 329 330 333
313 309 309 307 308 307 308 310 312 311 309 310 310 309 309 309 309 309 308 308 309 309 310 305 309 309 310 311 311 312 312 312 312 310 311 309 316 319 321 324 323 323 324 326 327
316 312 311 308 309 307 306 309 310 310 309 309 310 309 307 308 309 310 309 308 308 308 306 306 311 310 311 311 311 311 311 311 311 312 310 312 317 316 319 321 320 320 321 322 324
314 312 311 308 306 306 308 310 310 310 310 310 309 308 309 309 309 309 309 308 308 308 305 307 307 307 310 309 309 311 310 311 317 317 318 316 317 315 315 318 315 316 317 318 319
Wind_Speed
19 18 18 18 16 15 14 15 15 13 12 11 11 11 12 10 9 10 12 9 16 23 21 20 16 15 17 11 5 2 1 2 3 0 5 15 6 2 4 13 7 5 16 27 35
20 19 19 18 17 16 15 14 15 14 11 12 11 11 10 10 10 15 8 14 20 24 25 24 20 19 8 6 4 2 1 3 1 3 5 8 11 9 6 8 15 23 29 34 34
21 20 19 19 18 17 16 16 15 13 12 11 11 10 10 8 10 2 7 19 22 23 24 21 18 17 4 5 5 3 3 1 1 7 18 14 14 8 13 5 14 28 36 35 33
21 21 21 20 19 17 16 15 16 14 11 11 10 9 7 5 1 3 8 20 23 23 24 20 22 12 4 4 7 3 10 10 2 10 11 7 14 7 6 7 18 34 35 36 34
20 20 20 20 19 18 16 15 15 15 12 11 9 7 6 4 4 2 11 21 24 27 25 23 26 9 5 5 4 7 6 9 10 11 11 14 7 12 10 20 23 29 32 33 33
20 20 20 20 19 19 17 15 14 13 13 11 8 6 5 3 6 6 9 23 24 26 24 23 18 13 6 2 2 2 7 17 10 12 13 10 8 14 13 25 25 25 30 32 32
22 21 21 20 19 18 17 16 14 12 10 11 6 6 7 5 9 10 8 17 21 23 24 22 8 12 1 2 6 9 3 4 7 9 5 19 5 5 21 26 28 28 33 33 32
23 22 21 20 19 18 14 15 13 10 9 7 7 6 5 8 11 13 12 14 18 19 18 22 9 8 2 6 6 4 4 4 2 1 10 3 1 6 20 21 27 34 34 32 33
22 22 21 19 18 16 13 10 10 7 6 3 6 5 3 11 13 16 12 11 16 15 12 17 15 2 1 2 4 6 2 3 2 4 5 3 1 7 13 16 18 29 33 32 36
20 20 19 18 17 14 8 6 3 3 5 4 5 3 5 9 14 17 17 9 15 17 13 9 8 3 3 3 4 3 4 2 2 5 1 4 1 7 14 16 16 30 34 31 35
20 20 19 17 15 10 3 3 2 1 6 7 1 6 3 4 10 14 22 16 21 15 5 6 4 6 7 6 4 3 4 0 3 3 2 7 4 9 11 10 16 27 26 30 36
20 20 20 16 11 2 8 5 6 5 7 10 13 17 17 8 5 19 22 11 13 6 6 4 6 8 6 5 5 2 3 3 5 3 5 2 2 4 7 7 13 20 24 25 32
20 20 18 11 3 5 8 11 10 3 2 5 9 9 7 8 7 18 24 13 9 6 5 7 5 8 5 3 4 2 3 3 5 2 3 6 1 2 3 2 7 13 22 25 32
19 18 13 4 4 4 6 11 6 1 4 5 5 4 7 5 2 19 21 11 3 8 8 5 3 7 4 3 6 1 7 6 3 2 1 0 2 3 4 7 7 14 16 25 29
16 14 8 5 4 5 7 7 4 1 1 2 3 9 10 6 8 4 16 8 7 6 6 5 6 4 3 6 6 7 6 6 3 2 3 1 4 5 3 4 10 17 26 29 31
12 11 6 5 5 9 10 7 3 3 1 2 4 4 5 2 2 5 5 7 6 5 3 5 2 5 8 6 9 5 5 7 5 3 2 2 4 4 3 5 5 20 28 33 36
8 11 10 7 7 9 12 3 3 3 5 6 4 4 5 2 4 4 5 6 3 5 3 3 2 5 3 3 3 5 6 2 3 2 4 2 4 6 8 12 8 15 33 33 37
7 11 12 8 11 12 10 5 7 5 4 4 4 5 5 6 7 6 4 5 7 5 4 5 1 6 8 3 5 5 7 5 5 5 4 3 5 1 6 17 24 7 23 27 32
8 8 15 11 13 13 3 6 1 4 6 6 1 7 7 6 5 6 5 3 4 4 5 5 1 5 4 5 2 4 5 3 7 2 3 2 4 6 18 19 29 28 4 17 24
8 5 23 12 13 9 5 4 3 5 6 3 5 3 3 7 5 5 6 5 6 8 2 2 5 3 5 5 9 7 1 3 4 3 2 2 3 4 16 19 19 23 25 18 17
7 4 22 17 9 11 4 3 4 15 8 7 4 5 4 3 5 4 6 2 7 6 11 2 3 4 5 8 5 6 5 5 5 3 5 4 2 7 7 11 17 22 26 28 13
7 3 21 11 8 3 3 4 8 12 17 7 4 5 5 6 6 4 4 4 20 4 4 4 5 5 2 5 4 5 3 3 4 3 2 3 2 6 10 17 21 24 27 31 17
3 7 19 3 4 3 4 4 9 10 8 8 8 7 5 4 6 4 4 9 21 6 2 1 3 4 3 5 5 7 5 3 4 3 1 4 4 9 16 18 24 24 27 32 28
3 4 10 20 8 4 2 5 4 14 8 8 7 5 5 8 9 3 3 6 14 12 13 6 4 3 6 4 3 4 4 4 4 3 3 1 3 6 12 15 23 26 25 28 27
6 2 3 3 9 6 5 4 4 7 8 17 6 9 4 5 4 4 5 6 9 16 8 5 4 3 5 5 3 3 3 1 1 3 3 5 2 3 6 9 15 19 24 27 31
4 4 6 4 4 5 6 5 5 4 7 5 5 4 8 5 2 2 2 4 1 8 5 5 3 3 2 3 2 4 6 6 4 3 3 6 3 4 5 10 17 21 24 25 25
11 9 5 7 4 4 2 2 2 2 8 8 3 3 7 3 0 1 0 2 2 3 3 3 4 3 3 2 2 3 1 3 2 3 2 1 0 6 5 9 11 15 18 21 22
Wind_Direction
339 337 335 334 333 333 333 331 328 323 317 310 310 310 307 299 286 255 243 208 190 175 172 172 166 164 168 185 191 238 290 293 326 135 130 140 114 156 92 141 101 215 153 161 159
340 340 337 333 330 330 329 327 327 320 314 311 309 309 309 305 289 276 244 198 186 182 180 180 168 164 169 188 222 213 194 238 216 141 150 128 131 142 139 142 94 101 144 155 159
339 338 337 334 330 328 326 324 322 321 312 308 308 303 308 310 308 314 216 183 177 181 188 179 169 157 149 166 220 209 226 242 276 102 135 146 167 157 138 82 149 141 144 158 160
337 336 334 333 329 326 323 322 320 316 311 306 304 298 300 309 215 358 173 174 172 168 170 167 165 158 162 191 208 271 237 255 185 134 135 178 148 134 120 128 159 155 157 161 167
335 334 333 331 328 325 320 317 316 314 306 302 295 287 291 270 248 108 154 165 166 166 176 171 168 158 169 199 211 224 263 276 262 174 161 151 147 138 133 141 148 165 168 170 172
335 334 332 331 327 324 319 315 311 309 303 299 281 270 247 247 158 152 164 172 172 172 171 175 180 168 180 257 245 305 266 279 292 189 162 132 148 144 170 162 154 170 181 181 181
332 333 332 329 325 322 319 313 307 300 295 298 249 249 231 195 166 157 154 187 185 185 179 180 172 185 110 270 291 287 320 339 37 122 144 128 149 227 175 170 168 173 188 190 189
325 327 328 327 324 320 321 314 306 289 284 279 236 208 245 169 172 169 160 178 190 189 194 183 158 189 280 311 329 13 40 8 53 128 160 153 155 130 172 182 165 179 185 187 194
323 324 326 326 322 318 324 317 310 274 247 215 213 220 229 187 184 173 173 171 178 189 180 190 199 230 292 63 8 13 120 40 20 192 147 157 97 158 171 184 175 182 181 185 193
330 328 330 327 319 316 329 331 39 154 170 182 219 267 215 198 200 191 187 178 155 159 172 149 177 119 47 89 193 181 93 14 350 215 206 167 233 157 180 188 184 176 177 185 191
336 336 336 330 317 315 329 138 36 44 225 232 183 270 306 81 174 184 179 152 146 145 137 183 116 186 192 195 173 134 110 205 286 205 190 226 196 184 185 172 177 187 182 183 192
338 339 338 334 321 333 71 73 19 290 298 258 248 262 263 276 146 165 170 150 147 156 136 83 211 204 186 190 168 139 104 288 261 252 187 20 80 108 188 194 185 186 202 185 192
338 340 344 342 67 101 82 22 354 343 214 273 225 239 253 180 174 168 176 159 147 137 180 145 212 175 193 164 144 119 161 212 224 53 50 114 73 159 184 169 212 195 198 203 191
340 342 354 55 81 95 42 6 357 271 50 271 208 212 190 182 125 173 174 155 141 161 152 161 158 152 158 197 137 162 213 209 276 50 134 346 288 274 196 191 212 215 212 197 199
345 355 16 76 62 42 354 341 352 173 314 145 167 152 163 166 139 119 172 181 152 145 109 227 153 154 166 205 155 215 161 183 217 134 107 16 76 261 132 237 218 219 219 211 202
11 25 51 41 22 348 338 307 259 35 240 12 130 133 100 62 81 106 123 112 123 95 68 189 173 145 199 211 174 121 82 39 48 80 45 205 131 287 216 221 220 220 224 218 214
31 36 34 15 340 332 329 302 50 102 321 336 25 101 106 99 65 73 43 30 94 98 128 41 9 336 32 127 92 92 81 27 39 39 198 25 75 232 288 330 303 226 218 215 218
21 18 10 353 342 337 340 57 58 318 306 322 4 62 73 355 26 26 63 42 10 64 86 133 327 359 337 39 165 163 157 150 162 170 203 20 179 293 333 341 1 317 232 218 212
352 33 13 356 357 351 78 61 240 307 310 332 27 66 17 8 100 80 58 46 16 351 128 133 73 318 59 26 46 169 78 169 108 21 90 245 324 328 353 2 2 12 244 235 222
356 1 10 1 4 20 80 98 347 338 316 22 92 56 80 358 68 73 26 331 338 24 173 143 91 20 305 26 27 93 92 72 12 124 146 348 66 314 342 344 350 0 354 333 250
6 22 358 0 36 53 69 70 20 353 35 43 36 63 88 48 54 66 359 51 350 343 59 70 80 333 33 14 305 11 17 29 108 104 151 142 282 9 335 352 354 358 357 352 274
34 39 4 15 49 27 48 354 12 342 16 27 82 62 54 32 44 80 100 8 337 327 47 358 103 66 70 290 35 67 66 101 119 209 56 120 208 19 16 16 12 10 14 21 37
69 33 16 51 81 15 0 12 51 14 16 11 23 33 37 47 87 51 55 353 14 43 76 133 31 89 14 331 2 52 342 91 105 80 30 129 223 43 17 18 14 18 23 31 52
48 37 21 48 49 101 56 11 20 34 51 56 14 40 50 33 16 84 38 353 4 24 42 86 69 125 164 139 148 72 1 24 95 88 153 192 269 6 20 14 7 12 23 35 47
51 66 54 355 10 39 60 16 14 10 15 30 38 33 34 60 35 44 13 352 11 6 29 77 99 70 66 86 91 143 160 345 353 165 146 202 302 59 23 26 12 10 20 30 34
84 102 85 53 16 35 13 1 34 351 29 9 84 33 46 85 73 125 41 30 338 342 42 8 116 107 76 64 117 201 225 205 248 299 214 159 238 49 26 49 32 28 23 18 21
75 80 91 14 21 68 333 35 21 52 37 55 41 85 46 53 184 287 227 79 58 37 45 57 120 90 159 359 93 36 234 168 127 59 80 220 126 357 8 36 39 31 27 17 13